Location: Peebles
(55.6412°N, 3.1714°W)
Time: 15:57:17
(UTC+01:00)

Cosmos 2239 Rocket - Pass Details

Date: 26 September 2021
Orbit: 955 x 990 km, 82.9° (Epoch: 18 October)

Event Time Altitude Azimuth Distance (km) Brightness Sun altitude
Exits shadow 22:23:33 67° 169° (SSE) 1,055 4.4 -27.0°
Maximum altitude 22:24:26 82° 99° (E) 993 4.3 -27.1°
Drops below altitude 10° 22:30:44 10° 13° (NNE) 2,750 7.2 -27.8°
Sets 22:33:16 0° 13° (NNE) 3,706 8.0 -28.0°
